Regional Weather Roundup
Issued by NWS Kansas City/Pleasant Hill, MO

Home | Current Version | Previous Version | Graphics & Text | Print | Product List | Glossary Off
Versions: 1 2 3 4 5 6 7 8 9 10 11 12 13 14 15 16 17 18 19 20 21 22 23 24 25 26 27

000
ASUS43 KEAX 091610
RWREAX

WEATHER ROUNDUP FOR EASTERN KANSAS AND NORTHWEST MISSOURI
NATIONAL WEATHER SERVICE KANSAS CITY/PLEASANT HILL MO
1000 AM CST FRI DEC 09 2016

KSZ040-057-103>105-MOZ028-029-037-043-091700-
...KANSAS CITY METROPOLITAN AREA...

CITY           SKY/WX    TMP DP  RH WIND       PRES   REMARKS
K.C. INTL      CLOUDY    18  10  71 CALM      30.66R
K.C. DOWNTOWN  MOSUNNY   21  11  65 E3        30.68R
LEES SUMMIT    MOSUNNY   19  11  70 CALM      30.67R
OLATHE - IXD   CLOUDY    19  11  70 SE6       30.66R WCI  11
OLATHE - OJC   MOSUNNY   18  11  74 S5        30.66R WCI  11
LAWRENCE       CLOUDY    19  13  77 SE6       30.68R WCI  11

$$

MOZ001>008-011>017-020>025-030>033-038>040-044>046-053-054-091700-
...NORTHERN AND CENTRAL MISSOURI...

CITY           SKY/WX    TMP DP  RH WIND       PRES   REMARKS
ST. JOSEPH     MOSUNNY   17  12  80 S3        30.68R
MOSBY          MOSUNNY   19  10  68 CALM      30.68R
WARRENSBURG    CLOUDY    19  12  73 CALM      30.69R
WHITEMAN AFB   PTSUNNY   18  12  76 CALM      30.67R
CLINTON        CLOUDY    19  12  73 CALM      30.69R
SEDALIA        MOSUNNY   19  10  68 CALM      30.68R
WARSAW         NOT AVBL
CHILLICOTHE      N/A     19  10  68 N3        30.68R
KIRKSVILLE     SUNNY     17  11  77 N7        30.64R WCI   8

$$

MOZ041-047>049-056>058-063>065-088>090-097-091700-
...EASTERN AND SOUTHERN MISSOURI...

CITY           SKY/WX    TMP DP  RH WIND       PRES   REMARKS
ST. LOUIS INTL MOSUNNY   25  13  60 NW7       30.64S WCI  17
SPIRIT OF STL  SUNNY     23  14  68 N6        30.66R WCI  16
COLUMBIA       SUNNY     21  12  68 CALM      30.65R
JEFFERSON CITY SUNNY     20  13  74 W5        30.68R WCI  13
ROLLA          SUNNY     19  12  74 W3        30.61R
OSAGE BEACH    SUNNY     27  14  58 SW5       30.67R WCI  22
SPRINGFIELD    SUNNY     23  12  62 CALM      30.64R
BRANSON        MOSUNNY   23  10  58 CALM      30.65R
JOPLIN         SUNNY     23  15  71 E7        30.67R WCI  15
WEST PLAINS    SUNNY     24  13  62 N3        30.65R

$$

IAZ060-094-KSZ022-034>040-054-083-096-NEZ052-066-093-091700-
...KANSAS...SOUTHEAST NEBRASKA AND IOWA...

CITY           SKY/WX    TMP DP  RH WIND       PRES   REMARKS
TOPEKA         CLOUDY    21  14  74 SE7       30.66S WCI  12
MANHATTAN      CLOUDY    22  14  71 SE8       30.62F WCI  12
EMPORIA        CLOUDY    22  14  71 SE10      30.64R WCI  11
CHANUTE        SUNNY     23  15  71 SE8       30.66R WCI  14
WICHITA        CLOUDY    23  14  68 S10       30.60S WCI  12
OMAHA          PTSUNNY   12   6  77 CALM      30.65R
LINCOLN        CLOUDY    14   9  80 CALM      30.64R
FALLS CITY     CLOUDY    15  11  83 CALM      30.65R
LAMONI         SUNNY     15   9  76 N3        30.61R
DES MOINES     CLOUDY    16   7  67 CALM      30.62F

$$





USA.gov is the U.S. government's official web portal to all federal, state and local government web resources and services.